Regional Weather Roundup
Issued by NWS State College, PA

Home | Current Version | Previous Version | Graphics & Text | Print | Product List | Glossary Off
Versions: 1 2 3 4 5 6 7 8 9 10 11 12 13 14 15 16 17 18 19 20 21 22 23 24 25 26 27 28 29 30 31 32 33 34 35 36 37 38 39 40 41 42 43 44 45 46 47 48 49 50

000
ASUS41 KCTP 250203
RWRCTP

REGIONAL WEATHER ROUNDUP
NATIONAL WEATHER SERVICE STATE COLLEGE PA
1000 PM EDT FRI OCT 24 2014

Note: "fair" indicates few or no clouds below 12,000 feet with no
significant weather and/or obstructions to visibility.

* = STATION THAT DOES NOT REPORT PRECIPITATION /E.G. RAIN...SNOW...ETC/
    THUNDER OR FOG.

PAZ002>004-007>009-013>016-020>023-029>032-250300-
WESTERN PENNSYLVANIA

CITY           SKY/WX    TMP DP  RH WIND       PRES   REMARKS
ERIE           CLOUDY    53  44  71 S5        29.98F
MEADVILLE      CLOUDY    50  42  74 CALM      30.00S
FRANKLIN*      PTCLDY    46  36  66 CALM      30.02R
NEW CASTLE       N/A     46  39  76 CALM      30.02S
BEAVER COUNTY  NOT AVBL
BUTLER*        CLEAR     45  34  65 CALM      30.03S
PITTSBURGH INT CLEAR     48  38  68 CALM      30.01S
PITTSBURGH     CLEAR     51  35  54 SW7       30.01R
INDIANA*       PTCLDY    43  39  87 CALM      30.05R
LATROBE        CLEAR     45  37  76 SW7       30.02R
WASHINGTON CO* CLEAR     37  34  87 CALM      30.04S
$$

PAZ004>006-010>012-017>019-024>028-033>037-041-042-045-046-049>053-250300-
CENTRAL PENNSYLVANIA

CITY           SKY/WX    TMP DP  RH WIND       PRES   REMARKS
BRADFORD       CLEAR     42  35  76 W3        29.98S
DUBOIS         CLEAR     48  37  65 W6        29.98S
CLEARFIELD     CLEAR     49  37  63 W5        29.99R
JOHNSTOWN      CLEAR     48  35  60 W10       30.00R
ALTOONA        CLEAR     48  38  68 SW6       29.99S
STATE COLLEGE  CLEAR     48  38  70 SW6       29.97R
WILLIAMSPORT   PTCLDY    51  30  44 W7        29.92R
SELINSGROVE    MOCLDY    55  36  48 W3        29.93R
FT INDIANTOWN  CLOUDY    60  36  41 W9G17     29.91R
CAPITAL CITY   CLOUDY    56  39  53 W8        29.93R
HARRISBURG     CLOUDY    56  40  55 NW13      29.92R
YORK           CLOUDY    54  38  54 W7        29.93R
$$

PAZ038>040-043-044-047-048-054-055-060>062-067>071-250300-
EASTERN PENNSYLVANIA

CITY           SKY/WX    TMP DP  RH WIND       PRES   REMARKS
SCRANTON       PTCLDY    53  35  50 NW6       29.91R
MOUNT POCONO   MOCLDY    50  34  54 NW14      29.88R
ALLENTOWN      PTCLDY    59  38  45 CALM      29.88R
QUAKERTOWN*    PTCLDY    54  41  62 NW5       29.89R
READING        MOCLDY    58  36  43 W9        29.88S
LANCASTER      CLOUDY    53  38  56 W9        29.91R
COATESVILLE    MOCLDY    55  37  50 W10       29.90R
POTTSTOWN      PTCLDY    54  35  48 NW3       29.89R
BLUE BELL      PTCLDY    52  43  71 CALM      29.86S
DOYLESTOWN     PTCLDY    55  42  61 NW5       29.86S
WILLOW GROVE   NOT AVBL
NORTH PHILA    FAIR      59  40  49 NW6       29.88R
PHILADELPHIA   MOCLDY    61  37  41 W6        29.87S
$$



USA.gov is the U.S. government's official web portal to all federal, state and local government web resources and services.